Location: Cazavet
(43.0017°N, 1.0431°E)
Time: 23:42:18
(UTC+00:00)

Cosmos 1943 Rocket - Pass Details

Date: 18 January 2026
Orbit: 811 x 842 km, 71.0° (Epoch: 13 February)

Event Time Altitude Azimuth Distance (km) Brightness Sun altitude
Exits shadow 06:07:09 16° 259° (W) 2,003 3.6 -13.7°
Maximum altitude 06:10:23 27° 307° (NW) 1,516 3.0 -13.1°
Drops below altitude 10° 06:15:02 10° 4° (N) 2,408 4.5 -12.3°
Sets 06:17:51 0° 17° (NNE) 3,346 5.3 -11.8°
